GW7226 Weather Reports


Display with metric or nautical units.
time (UTC)temp
F
wind
direction
speed
MPH
gust
MPH
rain 1hr
in
rain 24hr
in
rain mn
in
humidity
%
barometer
mb
20260905035231 70 5 1.0 4.0 0.00 0.00 0.00 55 1010.2
20260905034725 70 312 1.0 4.0 0.00 0.00 0.00 55 1009.9
20260905034219 71 318 1.0 3.0 0.00 0.00 0.00 55 1009.8
20260905033713 71 327 1.0 4.0 0.00 0.00 0.00 54 1009.7
20260905033210 71 309 2.0 4.0 0.00 0.00 0.00 54 1009.7
20260905032710 71 290 2.0 4.0 0.00 0.00 0.00 54 1009.7
20260905032511 72 306 1.0 4.0 0.00 0.00 0.00 54 1009.6
20260905031711 72 304 1.0 3.0 0.00 0.00 0.00 54 1009.4
20260905031209 72 298 1.0 4.0 0.00 0.00 0.00 53 1009.5
20260905030707 72 315 1.0 4.0 0.00 0.00 0.00 53 1009.4
20260905030207 73 319 1.0 3.0 0.00 0.00 0.00 52 1009.3
20260905025708 73 325 1.0 3.0 0.00 0.00 0.00 52 1009.4
20260905025206 73 325 1.0 3.0 0.00 0.00 0.00 51 1009.4
20260905024708 74 348 0.0 2.0 0.00 0.00 0.00 52 1009.4
20260905024459 74 330 1.0 4.0 0.00 0.00 0.00 51 1009.3
20260905023707 75 5 1.0 4.0 0.00 0.00 0.00 50 1009.2
20260905023204 75 348 1.0 4.0 0.00 0.00 0.00 49 1009.1
20260905022704 76 32 1.0 5.0 0.00 0.00 0.00 48 1009.1
20260905022204 76 355 1.0 5.0 0.00 0.00 0.00 48 1009.1
20260905021702 77 348 1.0 5.0 0.00 0.00 0.00 47 1009.3
20260905021202 77 340 1.0 5.0 0.00 0.00 0.00 47 1009.3
20260905020701 78 342 2.0 5.0 0.00 0.00 0.00 46 1009.1
20260905020505 78 19 2.0 5.0 0.00 0.00 0.00 45 1009.1
20260905015955 79 0 1.0 6.0 0.00 0.00 0.00 44 1009.0
20260905015149 79 309 1.0 6.0 0.00 0.00 0.00 44 1009.1
20260905014643 79 327 2.0 6.0 0.00 0.00 0.00 43 1009.1
20260905014137 79 0 2.0 6.0 0.00 0.00 0.00 44 1009.1
20260905013630 80 5 2.0 7.0 0.00 0.00 0.00 43 1009.1
20260905013130 80 327 2.0 7.0 0.00 0.00 0.00 42 1009.1
20260905012630 80 320 2.0 6.0 0.00 0.00 0.00 40 1009.1
20260905012431 81 326 2.0 6.0 0.00 0.00 0.00 39 1009.0
20260905011630 81 297 2.0 6.0 0.00 0.00 0.00 38 1009.0
20260905011131 82 316 2.0 8.0 0.00 0.00 0.00 37 1009.1
20260905010631 82 332 2.0 8.0 0.00 0.00 0.00 37 1009.1
20260905010132 83 283 2.0 7.0 0.00 0.00 0.00 37 1009.1
20260905005933 83 333 2.0 8.0 0.00 0.00 0.00 36 1009.1
20260905005129 84 305 2.0 8.0 0.00 0.00 0.00 35 1009.0
20260905004630 84 346 2.0 8.0 0.00 0.00 0.00 37 1008.9
20260905004130 84 5 3.0 8.0 0.00 0.00 0.00 36 1009.0
20260905003630 84 335 3.0 8.0 0.00 0.00 0.00 35 1008.8
20260905003130 84 298 2.0 8.0 0.00 0.00 0.00 36 1008.9
20260905002631 85 304 3.0 8.0 0.00 0.00 0.00 35 1009.0
20260905002130 85 338 3.0 8.0 0.00 0.00 0.00 36 1009.0
20260905001629 85 309 3.0 8.0 0.00 0.00 0.00 35 1008.9
20260905001130 85 313 3.0 9.0 0.00 0.00 0.00 35 1009.0
20260905000625 85 311 3.0 9.0 0.00 0.00 0.00 38 1009.0
20260905000119 85 310 3.0 9.0 0.00 0.00 0.00 35 1009.1
20260904235613 85 323 2.0 9.0 0.00 0.00 0.00 34 1009.1
20260904235110 85 287 3.0 9.0 0.00 0.00 0.00 36 1009.1
20260904234610 85 310 3.0 9.0 0.00 0.00 0.00 37 1009.3
20260904234108 85 288 4.0 9.0 0.00 0.00 0.00 35 1009.3
20260904233608 85 278 3.0 9.0 0.00 0.00 0.00 35 1009.3
20260904233109 84 257 2.0 9.0 0.00 0.00 0.00 37 1009.3
20260904232607 84 327 2.0 9.0 0.00 0.00 0.00 39 1009.2
20260904232108 84 289 3.0 9.0 0.00 0.00 0.00 40 1009.2
20260904231608 84 326 4.0 9.0 0.00 0.00 0.00 41 1009.3
20260904231208 85 260 3.0 10.0 0.00 0.00 0.00 37 1009.3
20260904231147 84 288 3.0 9.0 0.00 0.00 0.00 36 1009.3
20260904230109 84 300 3.0 10.0 0.00 0.00 0.00 38 1009.3
20260904225608 84 283 3.0 10.0 0.00 0.00 0.00 40 1009.4
20260904225110 85 293 3.0 10.0 0.00 0.00 0.00 37 1009.5
20260904224608 85 309 2.0 7.0 0.00 0.00 0.00 39 1009.5
20260904224107 85 355 3.0 10.0 0.00 0.00 0.00 39 1009.6
20260904223607 85 273 3.0 10.0 0.00 0.00 0.00 40 1009.8
20260904223108 85 296 1.0 8.0 0.00 0.00 0.00 43 1009.8
20260904222608 84 321 2.0 8.0 0.00 0.00 0.00 45 1009.7
20260904222108 84 319 2.0 8.0 0.00 0.00 0.00 42 1009.8
20260904221917 83 13 2.0 7.0 0.00 0.00 0.00 42 1009.8
20260904221107 83 331 1.0 7.0 0.00 0.00 0.00 41 1009.7
20260904220609 83 275 2.0 7.0 0.00 0.00 0.00 42 1009.8
20260904220109 83 240 1.0 7.0 0.00 0.00 0.00 40 1010.0
20260904215608 82 286 1.0 7.0 0.00 0.00 0.00 43 1009.9
20260904215107 82 181 2.0 7.0 0.00 0.00 0.00 47 1009.9
20260904214904 82 290 1.0 7.0 0.00 0.00 0.00 44 1009.9
20260904214107 82 199 1.0 7.0 0.00 0.00 0.00 40 1009.8
20260904213608 83 254 2.0 7.0 0.00 0.00 0.00 42 1009.9
20260904213105 83 232 2.0 7.0 0.00 0.00 0.00 40 1010.0
20260904212602 83 5 2.0 7.0 0.00 0.00 0.00 43 1010.0
20260904212413 83 298 2.0 7.0 0.00 0.00 0.00 45 1010.0
20260904211557 83 327 1.0 5.0 0.00 0.00 0.00 43 1010.2
20260904211050 82 66 0.0 5.0 0.00 0.00 0.00 50 1010.0
20260904210544 81 330 1.0 5.0 0.00 0.00 0.00 53 1010.0
20260904210336 80 287 1.0 4.0 0.00 0.00 0.00 46 1010.0
20260904205531 80 312 2.0 11.0 0.00 0.00 0.00 47 1010.2
20260904205032 79 273 2.0 11.0 0.00 0.00 0.00 43 1010.2
20260904204532 80 275 2.0 11.0 0.00 0.00 0.00 46 1010.2
20260904204033 80 240 1.0 11.0 0.00 0.00 0.00 45 1010.3
20260904203531 80 133 2.0 6.0 0.00 0.00 0.00 47 1010.3
20260904203031 81 329 3.0 6.0 0.00 0.00 0.00 43 1010.3
20260904202532 81 350 3.0 7.0 0.00 0.00 0.00 43 1010.3
20260904202033 80 293 2.0 7.0 0.00 0.00 0.00 46 1010.2
20260904201534 80 355 1.0 5.0 0.00 0.00 0.00 49 1010.3
20260904201033 79 5 1.0 7.0 0.00 0.00 0.00 54 1010.1
20260904200533 78 308 1.0 7.0 0.00 0.00 0.00 47 1010.3
20260904200033 77 327 2.0 7.0 0.00 0.00 0.00 49 1010.2
20260904195532 77 344 2.0 7.0 0.00 0.00 0.00 47 1010.3
20260904195032 77 308 1.0 6.0 0.00 0.00 0.00 48 1010.5
20260904194830 77 252 1.0 5.0 0.00 0.00 0.00 54 1010.5
20260904194031 77 346 1.0 6.0 0.00 0.00 0.00 49 1010.5
20260904193531 76 355 2.0 6.0 0.00 0.00 0.00 51 1010.6
20260904193028 76 292 2.0 6.0 0.00 0.00 0.00 49 1010.6
20260904192919 76 328 3.0 9.0 0.00 0.00 0.00 49 1010.7
20260904192600 76 282 2.0 6.0 0.00 0.00 0.00 50 1010.6
20260904191511 75 0 2.0 9.0 0.00 0.00 0.00 52 1010.6
20260904191009 75 283 2.0 9.0 0.00 0.00 0.00 53 1010.6
20260904190752 75 286 2.0 9.0 0.00 0.00 0.00 53 1010.6
20260904190011 74 306 2.0 6.0 0.00 0.00 0.00 54 1010.7
20260904185507 74 319 2.0 6.0 0.00 0.00 0.00 52 1010.7
20260904185007 74 313 2.0 9.0 0.00 0.00 0.00 51 1010.8
20260904184508 74 284 3.0 9.0 0.00 0.00 0.00 50 1010.9
20260904184006 74 263 3.0 9.0 0.00 0.00 0.00 52 1010.8
20260904183503 74 304 3.0 9.0 0.00 0.00 0.00 52 1010.9
20260904183005 74 281 2.0 7.0 0.00 0.00 0.00 54 1010.8
20260904182502 74 342 1.0 4.0 0.00 0.00 0.00 57 1010.8
20260904182001 73 18 1.0 4.0 0.00 0.00 0.00 60 1010.8
20260904181502 72 288 1.0 4.0 0.00 0.00 0.00 60 1010.7
20260904181001 72 0 1.0 5.0 0.00 0.00 0.00 62 1010.8
20260904180503 72 90 1.0 5.0 0.00 0.00 0.00 63 1010.8
20260904180001 72 56 1.0 6.0 0.00 0.00 0.00 61 1010.9
20260904175502 72 336 2.0 9.0 0.00 0.00 0.00 58 1010.9
20260904175001 71 304 2.0 9.0 0.00 0.00 0.00 58 1010.8
20260904174503 71 355 2.0 5.0 0.00 0.00 0.00 61 1010.9
20260904174001 71 32 2.0 5.0 0.00 0.00 0.00 63 1010.9
20260904173500 70 346 2.0 5.0 0.00 0.00 0.00 64 1010.9
20260904173001 70 17 2.0 5.0 0.00 0.00 0.00 63 1010.8
20260904172503 69 293 2.0 6.0 0.00 0.00 0.00 65 1010.8
20260904172306 69 319 1.0 6.0 0.00 0.00 0.00 67 1010.7
20260904171502 68 5 2.0 7.0 0.00 0.00 0.00 68 1010.8
20260904171003 68 12 2.0 7.0 0.00 0.00 0.00 68 1010.7
20260904170502 67 331 2.0 6.0 0.00 0.00 0.00 66 1010.9
20260904170004 67 294 1.0 6.0 0.00 0.00 0.00 68 1010.7
20260904165503 67 321 2.0 5.0 0.00 0.00 0.00 67 1010.9
20260904165305 67 21 2.0 5.0 0.00 0.00 0.00 69 1010.8
20260904164803 67 288 2.0 5.0 0.00 0.00 0.00 68 1010.7
20260904164001 67 301 2.0 5.0 0.00 0.00 0.00 68 1010.8
20260904163501 67 290 1.0 5.0 0.00 0.00 0.00 70 1010.6
20260904163308 66 355 2.0 5.0 0.00 0.00 0.00 73 1010.6
20260904162502 66 312 2.0 5.0 0.00 0.00 0.00 71 1010.5
20260904162002 66 325 2.0 5.0 0.00 0.00 0.00 72 1010.6
20260904161501 66 298 2.0 4.0 0.00 0.00 0.00 73 1010.6
20260904161307 66 9 2.0 5.0 0.00 0.00 0.00 73 1010.5
20260904160502 66 5 1.0 5.0 0.00 0.00 0.00 74 1010.6
20260904160003 65 309 1.0 5.0 0.00 0.00 0.00 75 1010.4
20260904155501 65 351 1.0 5.0 0.00 0.00 0.00 76 1010.5
20260904155301 65 342 1.0 3.0 0.00 0.00 0.00 77 1010.4
20260904154756 65 355 1.0 3.0 0.00 0.00 0.00 78 1010.4
20260904154304 65 0 1.0 3.0 0.00 0.00 0.00 79 1010.3
20260904153502 65 350 0.0 3.0 0.00 0.00 0.00 80 1010.4
20260904153002 65 348 0.0 3.0 0.00 0.00 0.00 80 1010.6
20260904152503 65 348 1.0 3.0 0.00 0.00 0.00 80 1010.4
20260904152108 64 342 0.0 3.0 0.00 0.00 0.00 81 1010.5
20260904152044 64 348 1.0 3.0 0.00 0.00 0.00 81 1010.4
20260904151001 64 17 0.0 2.0 0.00 0.00 0.00 81 1010.3
20260904150502 64 11 0.0 2.0 0.00 0.00 0.00 82 1010.2
20260904150004 64 12 0.0 2.0 0.00 0.00 0.00 82 1010.2
20260904145503 64 5 0.0 2.0 0.00 0.00 0.00 83 1010.2
20260904145001 64 5 0.0 1.0 0.00 0.00 0.00 83 1010.2
20260904144757 64 9 0.0 1.0 0.00 0.00 0.00 83 1010.1
20260904144258 64 9 0.0 1.0 0.00 0.00 0.00 83 1010.1
20260904143502 63 9 0.0 1.0 0.00 0.00 0.00 84 1010.0
20260904143001 63 9 0.0 1.0 0.00 0.00 0.00 84 1009.9
20260904142758 63 9 0.0 1.0 0.00 0.00 0.00 84 1009.8
20260904142000 63 9 0.0 1.0 0.00 0.00 0.00 84 1009.8
20260904141501 63 5 0.0 2.0 0.00 0.00 0.00 83 1009.7
20260904141004 63 5 0.0 2.0 0.00 0.00 0.00 83 1009.8
20260904140504 63 5 0.0 2.0 0.00 0.00 0.00 82 1009.7
20260904140001 63 5 0.0 2.0 0.00 0.00 0.00 82 1009.8
20260904135755 63 355 0.0 1.0 0.00 0.00 0.00 83 1009.7
20260904135002 63 346 0.0 1.0 0.00 0.00 0.00 82 1009.6
20260904134459 63 346 0.0 2.0 0.00 0.00 0.00 82 1009.5
20260904134319 63 346 0.0 2.0 0.00 0.00 0.00 82 1009.6
20260904133748 63 344 0.0 2.0 0.00 0.00 0.00 82 1009.5
20260904132954 63 348 0.0 2.0 0.00 0.00 0.00 83 1009.4
20260904132453 63 348 0.0 2.0 0.00 0.00 0.00 82 1009.4
20260904131950 63 331 0.0 1.0 0.00 0.00 0.00 83 1009.5
20260904131450 63 331 0.0 1.0 0.00 0.00 0.00 82 1009.4
20260904130948 63 331 0.0 2.0 0.00 0.00 0.00 82 1009.3
20260904130448 63 331 0.0 2.0 0.00 0.00 0.00 83 1009.3
20260904125948 63 331 0.0 2.0 0.00 0.00 0.00 82 1009.3
20260904125447 63 331 0.0 3.0 0.00 0.00 0.00 83 1009.3
20260904124944 63 331 0.0 3.0 0.00 0.00 0.00 82 1009.2
20260904124443 63 331 1.0 3.0 0.00 0.00 0.00 82 1009.0
20260904123943 63 331 1.0 3.0 0.00 0.00 0.00 82 1009.0
20260904123438 63 324 1.0 2.0 0.00 0.00 0.00 83 1009.1
20260904122938 63 323 1.0 2.0 0.00 0.00 0.00 82 1009.2
20260904122436 63 323 1.0 2.0 0.00 0.00 0.00 82 1009.1
20260904121934 63 325 1.0 2.0 0.00 0.00 0.00 83 1009.3
20260904121432 63 321 1.0 3.0 0.00 0.00 0.00 83 1009.1
20260904120932 63 331 1.0 3.0 0.00 0.00 0.00 83 1009.1
20260904120430 63 331 1.0 3.0 0.00 0.00 0.00 83 1009.1
20260904115933 63 324 1.0 3.0 0.00 0.00 0.00 83 1009.1
20260904115736 63 336 1.0 3.0 0.00 0.00 0.00 83 1009.0
20260904114930 63 340 1.0 3.0 0.00 0.00 0.00 84 1009.0
20260904114431 63 329 1.0 3.0 0.00 0.00 0.00 84 1009.0
20260904113931 63 340 1.0 3.0 0.00 0.00 0.00 85 1008.9
20260904113430 64 350 1.0 2.0 0.00 0.00 0.00 86 1008.9
20260904112931 64 21 0.0 2.0 0.00 0.00 0.00 85 1009.0
20260904112430 64 350 0.0 2.0 0.00 0.00 0.00 85 1008.9
20260904111930 64 350 1.0 4.0 0.00 0.00 0.00 84 1008.9
20260904111429 64 344 1.0 4.0 0.00 0.00 0.00 84 1008.9
20260904110929 64 318 2.0 4.0 0.00 0.00 0.00 83 1008.9
20260904110430 64 323 2.0 4.0 0.00 0.00 0.00 82 1008.9
20260904105929 64 336 2.0 4.0 0.00 0.00 0.00 81 1008.9
20260904105429 64 296 1.0 4.0 0.00 0.00 0.00 82 1008.8
20260904104933 64 343 1.0 3.0 0.00 0.00 0.00 82 1008.7
20260904104430 64 325 1.0 3.0 0.00 0.00 0.00 82 1008.7
20260904104230 64 303 1.0 3.0 0.00 0.00 0.00 83 1008.7
20260904103432 64 312 1.0 3.0 0.00 0.00 0.00 83 1008.5
20260904102931 64 313 1.0 3.0 0.00 0.00 0.00 83 1008.6
20260904102730 64 320 1.0 3.0 0.00 0.00 0.00 83 1008.5
20260904101929 64 323 0.0 3.0 0.00 0.00 0.00 84 1008.5
20260904101726 64 325 0.0 2.0 0.00 0.00 0.00 86 1008.4
20260904100929 64 315 0.0 2.0 0.00 0.00 0.00 87 1008.4
20260904100430 64 316 0.0 2.0 0.00 0.00 0.00 87 1008.2
20260904095929 64 315 0.0 2.0 0.00 0.00 0.00 87 1008.3
20260904095431 64 315 0.0 2.0 0.00 0.00 0.00 87 1008.1
20260904094928 64 319 1.0 2.0 0.00 0.00 0.00 87 1008.2
20260904094427 64 311 1.0 3.0 0.00 0.00 0.00 87 1008.3
20260904093928 64 321 1.0 3.0 0.00 0.00 0.00 87 1008.2
20260904093428 64 311 1.0 3.0 0.00 0.00 0.00 87 1008.3
20260904092924 64 311 1.0 3.0 0.00 0.00 0.00 87 1008.2
20260904092423 64 302 1.0 3.0 0.00 0.00 0.00 87 1008.4
20260904091923 64 325 1.0 3.0 0.00 0.00 0.00 87 1008.3
20260904091422 64 323 1.0 3.0 0.00 0.00 0.00 87 1008.4
20260904090920 64 297 1.0 3.0 0.00 0.00 0.00 87 1008.4
20260904090418 64 304 1.0 3.0 0.00 0.00 0.00 87 1008.4
20260904085919 64 306 1.0 3.0 0.00 0.00 0.00 87 1008.4
20260904085419 64 323 1.0 3.0 0.00 0.00 0.00 87 1008.5
20260904084916 64 296 1.0 3.0 0.00 0.00 0.00 86 1008.4
20260904084417 64 330 1.0 3.0 0.00 0.00 0.00 86 1008.4
20260904083914 64 328 1.0 3.0 0.00 0.00 0.00 86 1008.4
20260904083412 64 333 1.0 3.0 0.00 0.00 0.00 86 1008.4
20260904083022 65 21 1.0 5.0 0.00 0.00 0.00 86 1008.3
20260904082957 64 342 1.0 3.0 0.00 0.00 0.00 86 1008.3
20260904081913 65 330 1.0 5.0 0.00 0.00 0.00 85 1008.5
20260904081413 65 296 2.0 5.0 0.00 0.00 0.00 85 1008.5
20260904080911 65 355 2.0 5.0 0.00 0.00 0.00 85 1008.6
20260904080411 65 317 2.0 5.0 0.00 0.00 0.00 85 1008.4
20260904075912 65 14 2.0 5.0 0.00 0.00 0.00 85 1008.4
20260904075406 65 346 2.0 5.0 0.00 0.00 0.00 85 1008.4
20260904075206 65 338 1.0 4.0 0.00 0.00 0.00 85 1008.5
20260904074511 65 333 2.0 4.0 0.00 0.00 0.00 85 1008.4
20260904074450 65 323 1.0 4.0 0.00 0.00 0.00 85 1008.4
20260904073713 65 301 1.0 4.0 0.00 0.00 0.00 85 1008.3
20260904073205 65 302 1.0 3.0 0.00 0.00 0.00 85 1008.2
20260904072407 65 337 1.0 3.0 0.00 0.00 0.00 84 1008.2
20260904072204 65 355 1.0 2.0 0.00 0.00 0.00 84 1008.1
20260904071408 65 336 1.0 2.0 0.00 0.00 0.00 84 1008.1
20260904070903 65 329 1.0 3.0 0.00 0.00 0.00 84 1008.1
20260904070404 66 355 1.0 3.0 0.00 0.00 0.00 84 1008.2
20260904065901 66 350 1.0 3.0 0.00 0.00 0.00 83 1008.1
20260904065402 66 346 1.0 3.0 0.00 0.00 0.00 83 1008.0
20260904065200 66 351 1.0 3.0 0.00 0.00 0.00 83 1008.1
20260904064404 66 343 1.0 3.0 0.00 0.00 0.00 83 1008.1
20260904063902 66 21 0.0 3.0 0.00 0.00 0.00 83 1007.9
20260904063402 66 20 1.0 3.0 0.00 0.00 0.00 82 1008.0
20260904062903 66 5 1.0 3.0 0.00 0.00 0.00 82 1008.0
20260904062401 66 355 1.0 3.0 0.00 0.00 0.00 82 1008.0
20260904061902 66 13 1.0 3.0 0.00 0.00 0.00 82 1007.9
20260904061405 67 13 1.0 3.0 0.00 0.00 0.00 82 1007.9
20260904060903 67 17 1.0 4.0 0.00 0.00 0.00 81 1007.9
20260904060702 67 14 1.0 4.0 0.00 0.00 0.00 81 1007.8
20260904055855 67 9 1.0 4.0 0.00 0.00 0.00 81 1008.0
20260904055348 67 5 1.0 4.0 0.00 0.00 0.00 81 1007.9
20260904054846 67 342 1.0 4.0 0.00 0.00 0.00 80 1008.0
20260904054335 67 15 1.0 4.0 0.00 0.00 0.00 80 1008.1
20260904053837 67 14 1.0 5.0 0.00 0.00 0.00 80 1008.0
20260904053336 67 19 1.0 5.0 0.00 0.00 0.00 79 1007.9
20260904052836 67 15 1.0 5.0 0.00 0.00 0.00 79 1008.0
20260904052333 68 22 1.0 5.0 0.00 0.00 0.00 79 1008.2
20260904051833 68 38 2.0 5.0 0.00 0.00 0.00 79 1008.1
20260904051333 68 13 1.0 5.0 0.00 0.00 0.00 79 1008.1
20260904050830 68 15 1.0 5.0 0.00 0.00 0.00 79 1008.3
20260904050330 68 351 2.0 5.0 0.00 0.00 0.00 78 1008.3
20260904045829 68 17 2.0 5.0 0.00 0.00 0.00 78 1008.3
20260904045330 68 349 2.0 5.0 0.00 0.00 0.00 78 1008.3
20260904044830 68 355 1.0 6.0 0.00 0.00 0.00 78 1008.2
20260904044631 68 32 1.0 6.0 0.00 0.00 0.00 78 1008.3
20260904043828 68 0 2.0 7.0 0.00 0.00 0.00 78 1008.3
20260904043331 68 5 2.0 7.0 0.00 0.00 0.00 77 1008.2
20260904042829 69 323 2.0 6.0 0.00 0.00 0.00 77 1008.3
20260904042331 69 30 2.0 6.0 0.00 0.00 0.00 77 1008.2
20260904041831 69 10 2.0 6.0 0.00 0.00 0.00 77 1008.2
20260904041331 69 345 2.0 6.0 0.00 0.00 0.00 76 1008.2
20260904040832 69 351 2.0 6.0 0.00 0.00 0.00 76 1008.1
20260904040330 69 355 2.0 6.0 0.00 0.00 0.00 77 1008.1
20260904035829 70 24 2.0 7.0 0.00 0.00 0.00 76 1008.0